Location: Devargunta
(16.7631°N, 80.9077°E)
Time: 10:02:04
(UTC+00:00)

Milstar 3 - Pass Details

Date: 19 January 2021
Orbit: 1093 x 5152 km, 28.3° (Epoch: 11 February)

Event Time Altitude Azimuth Distance (km) Brightness Sun altitude
Rises 14:22:59 0° 243° (WSW) 5,221 7.5 -27.7°
Reaches altitude 10° 14:26:51 10° 243° (WSW) 3,794 6.5 -28.6°
Maximum altitude 14:35:28 86° 156° (SSE) 1,175 2.7 -30.6°
Enters shadow 14:35:55 80° 86° (E) 1,176 2.6 -30.7°
